Flag for U.S.A. Weather past 2 weeks in Seattle, Washington, U.S.A.

Now
55 °F

Light rain. Mostly cloudy.


Feels Like: 52 °F
Forecast: 44 / 54 °F
Wind: 9 mph from South

Location: Seattle Boeing Field


UV Index: 0 (Low)

Visibility: 10 mi


Pressure: 29.93 "Hg

Humidity: 72%

Dew point: 46 °F

Location of SeattleLocation

Historic Weather in Seattle

°F

Seattle temperature yesterday

Maximum temperature yesterday: 60 °F (at 5:53 PM)
Minimum temperature yesterday: 44 °F (at 5:53 AM)
Average temperature yesterday: 52 °F

Past Weeks' High & Low Weather Summary

 TemperatureHumidityPressure
High72 °F (Apr 7, 3:53 PM)89% (Apr 17, 12:53 AM)30.31 "Hg (Apr 17, 12:53 AM)
Low42 °F (Apr 14, 6:53 AM)18% (Apr 13, 4:53 PM)29.73 "Hg (Apr 17, 7:53 PM)
Average54 °F65%30.10 "Hg
* Reported Apr 4 2:53 PM — Apr 19 2:53 PM, Seattle, Weather by CustomWeather, © 2014

Note: Actual official high and low records may vary slightly from our data, if they occured in-between our weather recording intervals... More about our weather records

Advertising

Historic Weather Conditions — Data for Previous 24 hours

 ConditionsComfort  
Time TempWeatherWind HumidityBarometerVisibility
2:53 PM
Apr 19
53 °FCloudy.14 mph80%29.91 "Hg10 mi
2:02 PM52 °FLight rain. Cloudy.12 mph82%29.91 "Hg4 mi
1:56 PM52 °FLight rain. Cloudy.10 mph82%29.91 "Hg2 mi
12:53 PM49 °FLight rain. Mostly cloudy.12 mph84%29.88 "Hg9 mi
11:53 AM49 °FLight rain. Overcast.10 mph77%29.87 "Hg6 mi
10:53 AM53 °FLight rain. Mostly cloudy.12 mph64%29.84 "Hg10 mi
9:53 AM53 °FOvercast.6 mph55%29.78 "Hg10 mi
8:53 AM50 °FPartly sunny.8 mph63%29.77 "Hg10 mi
7:53 AM47 °FPartly sunny.8 mph77%29.81 "Hg10 mi
6:53 AM45 °FPassing clouds.6 mph82%29.81 "Hg10 mi
5:53 AM45 °FPassing clouds.No wind74%29.80 "Hg10 mi
4:53 AM46 °FClear.No wind73%29.81 "Hg10 mi
3:53 AM46 °FClear.No wind73%29.82 "Hg10 mi
2:53 AM46 °FClear.No wind77%29.84 "Hg10 mi
1:53 AM46 °FClear.No wind73%29.87 "Hg10 mi
12:53 AM49 °FClear.No wind66%29.89 "Hg10 mi
11:53 PM
Apr 18
50 °FClear.No wind63%29.91 "Hg10 mi
10:53 PM52 °FClear.3 mph59%29.94 "Hg10 mi
9:53 PM53 °FClear.5 mph52%29.97 "Hg10 mi
8:53 PM54 °FPartly sunny.5 mph51%29.99 "Hg10 mi
7:53 PM56 °FBroken clouds.5 mph47%30.01 "Hg10 mi
6:53 PM58 °FScattered clouds.No wind39%30.03 "Hg10 mi
5:53 PM60 °FScattered clouds.No wind33%30.05 "Hg10 mi
4:53 PM58 °FScattered clouds.No wind36%30.07 "Hg10 mi
Weather by CustomWeather, © 2014

See weather overview